Regional Weather Roundup
Issued by NWS Sioux Falls, SD

Home | Current Version | Previous Version | Graphics & Text | Print | Product List | Glossary On
Versions: 1 2 3 4 5 6 7 8 9 10 11 12 13 14 15 16 17 18 19 20 21 22 23 24 25 26 27 28 29 30 31 32 33 34 35 36 37 38 39 40 41 42 43 44 45 46 47 48 49 50
000
ASUS43 KFSD 271010
RWRFSD

WEATHER ROUNDUP FOR SE SOUTH DAKOTA/SW MINNESOTA/NW IOWA
NATIONAL WEATHER SERVICE SIOUX FALLS SD
500 AM CDT TUE SEP 27 2016

NOTE: "FAIR" INDICATES FEW OR NO CLOUDS BELOW 12,000 FEET WITH NO
SIGNIFICANT WEATHER AND OR OBSTRUCTIONS TO VISIBILITY.


SDZ038>040-050-052>070-271100-
SOUTHEAST SOUTH DAKOTA

CITY           SKY/WX    TMP DP  RH WIND       PRES   REMARKS
BROOKINGS      CLEAR     44  36  73 CALM      29.99S
CHAMBERLAIN    CLEAR     46  42  86 W3        30.06F
HURON          CLEAR     42  35  76 W6        30.02F
MADISON        FAIR      41  36  81 W7        30.01S
MITCHELL       CLEAR     48  37  65 W8        30.04S
SIOUX FALLS    CLEAR     46  37  71 W5        30.02S
WINNER         FAIR      49  40  71 SW7       30.09S HAZE
YANKTON        CLEAR     48  37  66 CALM      30.03S
$$

MNZ071-072-080-081-089-090-097-098-271100-
SOUTHWEST MINNESOTA

CITY           SKY/WX    TMP DP  RH WIND       PRES   REMARKS
FAIRMONT       CLEAR     48  37  65 W9        29.94S
JACKSON        PTCLDY    43  34  70 W6        29.96S
LUVERNE        CLEAR     41  34  75 CALM      30.01S
MARSHALL       CLEAR     45  37  73 W9        29.96S
MONTEVIDEO     CLEAR     45  36  70 NW6       29.96R
PIPESTONE      CLEAR     39  36  87 W6        29.99S
REDWOOD FALLS  CLEAR     44  37  76 W8        29.93S
TRACY          CLEAR     48  38  70 W6        29.96S
WINDOM         CLEAR     43  37  81 W7        29.95S
WORTHINGTON    CLEAR     43  36  76 W9        29.98S
$$

IAZ001>003-012>014-020>022-031-032-NEZ013-014-SDZ071-271100-
NORTHWEST IOWA

CITY           SKY/WX    TMP DP  RH WIND       PRES   REMARKS
CHEROKEE       CLEAR     46  38  72 CALM      30.01S
DENISON        CLEAR     45  43  93 CALM      30.01R
ESTHERVILLE    CLEAR     46  38  73 W9        29.96S
LE MARS        CLEAR     46  41  81 CALM      30.03S
ORANGE CITY    CLEAR     41  37  87 W6        30.01S
SHELDON        CLEAR     46  37  71 NW8       29.98F
SIOUX CITY     PTCLDY    49  43  80 N3        30.03S
SPENCER        CLEAR     45  38  76 W9        29.98F
STORM LAKE     CLEAR     45  39  81 W12       30.00F
$$

ABBREVIATIONS USED IN REMARKS
   TC - TEMPERATURE IN CELSIUS
  WCI - WIND CHILL INDEX
   HX - HEAT INDEX
  VSB - VISIBILITY




USA.gov is the U.S. government's official web portal to all federal, state and local government web resources and services.